TimeCDT,TemperatureF,Dew PointF,Humidity,Sea Level PressureIn,VisibilityMPH,Wind Direction,Wind SpeedMPH,Gust SpeedMPH,PrecipitationIn,Events,Conditions,WindDirDegrees,DateUTC
12:15 AM,23.9,22.8,96,30.29,1.0,West,4.6,-,N/A,,Unknown,270,2013-04-24 05:15:00
12:35 AM,23.0,21.7,95,30.29,5.0,West,4.6,-,N/A,,Clear,270,2013-04-24 05:35:00
12:55 AM,22.5,21.2,95,30.29,7.0,West,5.8,-,N/A,,Clear,270,2013-04-24 05:55:00
1:15 AM,22.8,21.4,94,30.29,7.0,West,5.8,-,N/A,,Clear,270,2013-04-24 06:15:00
1:35 AM,21.9,20.3,93,30.28,10.0,West,4.6,-,N/A,,Clear,270,2013-04-24 06:35:00
1:55 AM,20.7,19.0,93,30.27,10.0,West,4.6,-,N/A,,Clear,270,2013-04-24 06:55:00
2:15 AM,19.8,18.0,93,30.24,10.0,WNW,3.5,-,N/A,,Clear,290,2013-04-24 07:15:00
2:35 AM,20.3,19.2,96,30.28,10.0,West,5.8,-,N/A,,Clear,260,2013-04-24 07:35:00
2:55 AM,21.2,19.4,93,30.26,10.0,West,3.5,-,N/A,,Clear,270,2013-04-24 07:55:00
3:15 AM,19.4,17.4,92,30.27,10.0,West,5.8,-,N/A,,Clear,270,2013-04-24 08:15:00
3:35 AM,19.6,17.6,92,30.28,10.0,West,4.6,-,N/A,,Clear,270,2013-04-24 08:35:00
3:55 AM,19.4,17.4,92,30.28,10.0,West,6.9,-,N/A,,Clear,270,2013-04-24 08:55:00
4:15 AM,19.2,16.7,90,30.28,10.0,West,4.6,-,N/A,,Clear,270,2013-04-24 09:15:00
4:35 AM,19.9,17.6,91,30.27,10.0,West,5.8,-,N/A,,Clear,280,2013-04-24 09:35:00
4:55 AM,19.4,17.2,91,30.26,10.0,WNW,4.6,-,N/A,,Clear,300,2013-04-24 09:55:00
5:15 AM,18.9,16.5,91,30.25,10.0,West,5.8,-,N/A,,Clear,280,2013-04-24 10:15:00
5:35 AM,19.0,16.5,90,30.26,10.0,West,5.8,-,N/A,,Clear,280,2013-04-24 10:35:00
5:55 AM,19.4,16.9,90,30.25,10.0,West,4.6,-,N/A,,Clear,280,2013-04-24 10:55:00
6:15 AM,17.8,15.3,90,30.25,10.0,West,4.6,-,N/A,,Clear,280,2013-04-24 11:15:00
6:35 AM,16.9,14.2,89,30.25,10.0,WNW,4.6,-,N/A,,Clear,290,2013-04-24 11:35:00
6:55 AM,16.3,13.8,90,30.24,10.0,West,4.6,-,N/A,,Clear,270,2013-04-24 11:55:00
7:15 AM,18.0,15.6,91,30.24,10.0,West,4.6,-,N/A,,Clear,270,2013-04-24 12:15:00
7:35 AM,19.8,17.2,90,30.25,10.0,West,4.6,-,N/A,,Clear,270,2013-04-24 12:35:00
7:55 AM,22.6,20.1,90,30.26,10.0,West,3.5,-,N/A,,Clear,270,2013-04-24 12:55:00
8:15 AM,26.2,22.8,87,30.27,10.0,West,5.8,-,N/A,,Clear,260,2013-04-24 13:15:00
8:35 AM,28.9,24.4,83,30.28,10.0,WSW,5.8,-,N/A,,Clear,240,2013-04-24 13:35:00
8:55 AM,29.1,25.0,85,30.28,10.0,WSW,4.6,-,N/A,,Clear,240,2013-04-24 13:55:00
9:15 AM,31.8,26.8,82,30.28,10.0,WSW,4.6,-,N/A,,Clear,250,2013-04-24 14:15:00
9:35 AM,33.4,28.6,82,30.28,10.0,WSW,4.6,-,N/A,,Clear,250,2013-04-24 14:35:00
9:55 AM,35.8,30.2,80,30.29,10.0,WSW,4.6,-,N/A,,Clear,250,2013-04-24 14:55:00
10:15 AM,38.3,30.6,74,30.29,10.0,WSW,10.4,-,N/A,,Clear,250,2013-04-24 15:15:00
10:35 AM,41.5,30.0,64,30.30,10.0,West,9.2,-,N/A,,Clear,260,2013-04-24 15:35:00
10:55 AM,43.2,28.2,56,30.30,10.0,WSW,11.5,-,N/A,,Clear,250,2013-04-24 15:55:00
11:15 AM,45.0,27.3,50,30.30,10.0,West,12.7,16.1,N/A,,Clear,270,2013-04-24 16:15:00
11:35 AM,46.6,26.6,46,30.30,10.0,WSW,8.1,18.4,N/A,,Clear,240,2013-04-24 16:35:00
11:55 AM,48.7,25.2,40,30.30,10.0,WSW,9.2,-,N/A,,Clear,240,2013-04-24 16:55:00
12:15 PM,49.8,22.3,34,30.28,10.0,West,6.9,-,N/A,,Clear,270,2013-04-24 17:15:00
12:35 PM,50.9,21.2,31,30.27,10.0,Calm,Calm,-,N/A,,Clear,0,2013-04-24 17:35:00
12:55 PM,51.3,19.6,29,30.26,10.0,SE,3.5,-,N/A,,Clear,140,2013-04-24 17:55:00
1:15 PM,53.8,20.1,27,30.25,10.0,WNW,5.8,-,N/A,,Clear,290,2013-04-24 18:15:00
1:35 PM,54.0,18.5,25,30.23,10.0,Calm,Calm,-,N/A,,Clear,0,2013-04-24 18:35:00
1:55 PM,55.6,17.6,23,30.23,10.0,ENE,4.6,-,N/A,,Clear,60,2013-04-24 18:55:00
2:15 PM,56.3,18.3,23,30.22,10.0,Calm,Calm,-,N/A,,Clear,0,2013-04-24 19:15:00
2:35 PM,57.7,18.5,22,30.21,10.0,ENE,6.9,-,N/A,,Clear,60,2013-04-24 19:35:00
2:55 PM,57.4,16.2,20,30.21,10.0,Calm,Calm,-,N/A,,Clear,0,2013-04-24 19:55:00
3:15 PM,59.2,17.1,19,30.21,10.0,SE,3.5,-,N/A,,Clear,140,2013-04-24 20:15:00
3:35 PM,60.4,16.5,18,30.20,10.0,WSW,5.8,-,N/A,,Clear,240,2013-04-24 20:35:00
3:55 PM,61.0,16.7,18,30.19,10.0,WSW,5.8,-,N/A,,Clear,250,2013-04-24 20:55:00
4:15 PM,61.9,16.5,17,30.19,10.0,South,5.8,-,N/A,,Clear,190,2013-04-24 21:15:00
4:35 PM,62.4,16.0,17,30.18,10.0,Calm,Calm,-,N/A,,Clear,0,2013-04-24 21:35:00
4:55 PM,61.7,15.4,17,30.18,10.0,Calm,Calm,-,N/A,,Clear,0,2013-04-24 21:55:00
5:15 PM,62.8,15.6,16,30.18,10.0,SSW,8.1,-,N/A,,Clear,210,2013-04-24 22:15:00
5:35 PM,62.4,15.6,16,30.17,10.0,WSW,6.9,-,N/A,,Clear,240,2013-04-24 22:35:00
5:55 PM,62.4,15.6,16,30.17,10.0,Calm,Calm,-,N/A,,Clear,0,2013-04-24 22:55:00
6:15 PM,63.0,15.3,16,30.18,10.0,SW,6.9,-,N/A,,Clear,220,2013-04-24 23:15:00
6:35 PM,62.6,16.0,16,30.18,10.0,Calm,Calm,-,N/A,,Clear,0,2013-04-24 23:35:00
6:55 PM,62.1,16.2,17,30.18,10.0,ESE,5.8,-,N/A,,Clear,110,2013-04-24 23:55:00
7:15 PM,60.6,16.5,18,30.18,10.0,East,6.9,-,N/A,,Clear,100,2013-04-25 00:15:00
7:35 PM,59.5,17.8,20,30.17,10.0,ESE,6.9,-,N/A,,Clear,120,2013-04-25 00:35:00
7:55 PM,58.1,19.9,23,30.17,10.0,SE,10.4,-,N/A,,Clear,130,2013-04-25 00:55:00
8:15 PM,55.6,20.8,26,30.18,10.0,SE,9.2,-,N/A,,Clear,140,2013-04-25 01:15:00
8:35 PM,53.2,21.2,29,30.18,10.0,SE,8.1,-,N/A,,Clear,130,2013-04-25 01:35:00
8:55 PM,51.1,22.1,32,30.19,10.0,ESE,8.1,-,N/A,,Clear,120,2013-04-25 01:55:00
10:15 PM,41.7,22.5,46,30.24,10.0,SE,8.1,-,N/A,,Clear,140,2013-04-25 03:15:00
10:35 PM,40.3,22.6,49,30.25,10.0,SE,8.1,-,N/A,,Clear,140,2013-04-25 03:35:00
10:55 PM,39.2,22.5,51,30.26,10.0,SSE,9.2,-,N/A,,Clear,150,2013-04-25 03:55:00
11:35 PM,40.1,22.1,49,30.28,10.0,SE,8.1,-,N/A,,Clear,140,2013-04-25 04:35:00
11:55 PM,40.1,22.8,50,30.28,10.0,SE,9.2,-,N/A,,Clear,140,2013-04-25 04:55:00